Погода в Конуи

Великобритания     53°16′59″N   3°49′56″W
темп.,
°C
ветер,
м/с
пор.,
м/с
влажн.,
%
обл.,
%
осадки,
мм/ч
давл.,
гПа
погр.,
м
24 января, пн
пн2400:00+1ю229516 0.0 103238
03:00+1ююз119523 0.0 103216
06:000ююз119526 0.0 103214
09:00+1юв119712 0.0 103314
12:00+5в12807 0.0 1033343
15:00+6с10800 0.0 1032142
18:00+2з11940 0.0 103321
21:00+1юз11960 0.0 103418
25 января, вт
вт2500:00+1ююз11961 0.0 103422
03:000юз119635 0.0 103422
06:00+2зюз118985 0.0 103336
09:00+3юз118786 0.0 103465
12:00+5з127689 0.0 1034688
15:00+5з237589 0.0 1034755
18:00+4ююз238243 0.0 103483
21:00+2юз229275 0.0 103546
26 января, ср
ср2600:00+2ююз32915 0.0 103545
03:00+2ююз339013 0.0 103449
06:00+3ююз3390100 0.0 103455
09:00+2ююз349374 0.0 103467
12:00+7юз23775 0.0 1032327
15:00+7ююз3108074 0.0 1030709
18:00+4ююз3595100 0.0 1029114
21:00+6ююз51382100 0.0 1027392
27 января, чт
чт2700:00+8юз51587100 0.3 1026726
03:00+8зюз51593100 2.2 1025715
06:00+8з61297100 2.6 1025833
09:00+8зсз5118795 0.5 1028951
12:00+8сз6117397 0.6 10291112
15:00+8зсз59775 0.0 1031983
18:00+6зсз5118819 0.1 1032549
21:00+6сз510896 0.1 1034497
28 января, пт
пт2800:00+4з38945 0.1 1036267
03:00+3зюз2394100 0.0 103763
06:00+3юз2294100 0.0 103745
09:00+3ююз2390100 0.0 103769
12:00+7ююз41182100 0.0 1035529
15:00+9ююз41376100 0.0 1032552
18:00+9юз51584100 0.0 1031594
21:00+9юз61687100 0.0 1031632